This demonstration page uses our WeatherBlox Daily Observations layout. Learn more.

Left ArrowRight Arrow

53.62937, 11.41316

Hourly Observations for July 15, 2022

Temp ( °F °C ) Dew Point ( °F °C ) Humidity (%) Winds ( mph kmh ) Pressure ( in mb ) Visibility ( mi km ) Precip ( " mm )
12:20 am 00:20 Mostly Cloudy 55 13 48 9 77 77 W 7 11 30.03 1017 30 48 N/A
12:50 am 00:50 Mostly Clear 54 12 48 9 82 82 W 6 9 30.03 1017 30 48 N/A
1:20 am 01:20 Partly Cloudy 54 12 48 9 82 82 W 6 9 30.03 1017 30 48 N/A
1:50 am 01:50 Mostly Cloudy 54 12 48 9 82 82 W 5 7 30.03 1017 30 48 N/A
2:20 am 02:20 Mostly Cloudy 54 12 48 9 82 82 W 8 13 30.03 1017 30 48 N/A
2:50 am 02:50 Partly Cloudy 54 12 48 9 82 82 W 5 7 30.03 1017 30 48 N/A
3:20 am 03:20 Mostly Clear 52 11 48 9 88 88 W 3 6 30.03 1017 30 48 N/A
3:50 am 03:50 Mostly Clear 50 10 48 9 94 94 W 3 6 30.03 1017 30 48 N/A
4:20 am 04:20 Mostly Cloudy 52 11 48 9 88 88 W 6 9 30.03 1017 30 48 N/A
4:50 am 04:50 Mostly Cloudy 54 12 48 9 82 82 W 7 11 30.03 1017 30 48 N/A
5:20 am 05:20 Mostly Cloudy 54 12 48 9 82 82 W 6 9 30.03 1017 30 48 N/A
5:50 am 05:50 Mostly Cloudy 54 12 48 9 82 82 W 6 9 30.06 1018 30 48 N/A
6:20 am 06:20 Mostly Cloudy 55 13 48 9 77 77 W 7 11 30.06 1018 30 48 N/A
6:50 am 06:50 Mostly Sunny 55 13 50 10 82 82 W 7 11 30.06 1018 7 11 N/A
7:20 am 07:20 Mostly Sunny 57 14 50 10 77 77 W 6 9 30.06 1018 30 48 N/A
7:50 am 07:50 Mostly Sunny 57 14 50 10 77 77 WNW 8 13 30.06 1018 30 48 N/A
8:20 am 08:20 Mostly Sunny 59 15 48 9 68 68 WNW 9 15 30.06 1018 30 48 N/A
8:50 am 08:50 Mostly Sunny 59 15 48 9 68 68 WNW 13 20 30.09 1019 30 48 N/A
9:20 am 09:20 Partly Cloudy 61 16 48 9 63 63 WNW 12 19 30.09 1019 30 48 N/A
9:50 am 09:50 Mostly Cloudy 61 16 46 8 59 59 WNW 13 20 30.09 1019 30 48 N/A
10:20 am 10:20 Mostly Cloudy 61 16 45 7 55 55 WNW 13 20 30.09 1019 30 48 N/A
10:50 am 10:50 Mostly Cloudy 61 16 46 8 59 59 NW 13 20 30.09 1019 30 48 N/A
11:20 am 11:20 Partly Cloudy 63 17 46 8 56 56 W 12 19 30.09 1019 30 48 N/A
11:50 am 11:50 Mostly Cloudy 61 16 48 9 63 63 WNW 12 19 30.09 1019 30 48 N/A
12:20 pm 12:20 Partly Cloudy 63 17 50 10 64 64 WNW 12 19 30.09 1019 30 48 N/A
12:50 pm 12:50 Mostly Sunny 63 17 48 9 59 59 W 12 19 30.09 1019 30 48 N/A
1:20 pm 13:20 Mostly Cloudy 63 17 48 9 59 59 WNW 14 22 30.09 1019 30 48 N/A
1:50 pm 13:50 Mostly Sunny 64 18 46 8 52 52 NW 15 24 30.09 1019 30 48 N/A
2:20 pm 14:20 Partly Cloudy 64 18 48 9 56 56 WNW 13 20 30.09 1019 30 48 N/A
2:50 pm 14:50 Partly Cloudy 66 19 48 9 52 52 W 12 19 30.09 1019 30 48 N/A
3:20 pm 15:20 Mostly Cloudy 66 19 50 10 56 56 NW 12 19 30.09 1019 30 48 N/A
3:50 pm 15:50 Mostly Sunny 68 20 48 9 49 49 WNW 12 19 30.09 1019 7 11 N/A
4:20 pm 16:20 Partly Cloudy 66 19 48 9 52 52 NW 12 19 30.09 1019 30 48 N/A
4:50 pm 16:50 Mostly Sunny 68 20 48 9 49 49 NW 13 20 30.09 1019 30 48 N/A
5:20 pm 17:20 Mostly Sunny 66 19 46 8 49 49 WNW 12 19 30.09 1019 30 48 N/A
5:50 pm 17:50 Partly Cloudy 66 19 45 7 46 46 WNW 16 26 30.09 1019 30 48 N/A
6:20 pm 18:20 Mostly Sunny 66 19 43 6 43 43 WNW 13 20 30.09 1019 7 11 N/A
6:50 pm 18:50 Mostly Sunny 64 18 45 7 49 49 WNW 12 19 30.09 1019 7 11 N/A
7:20 pm 19:20 Mostly Sunny 64 18 45 7 49 49 WNW 9 15 30.09 1019 30 48 N/A
7:50 pm 19:50 Mostly Sunny 63 17 46 8 56 56 WNW 10 17 30.09 1019 7 11 N/A
8:20 pm 20:20 Mostly Sunny 63 17 46 8 56 56 W 6 9 30.09 1019 7 11 N/A
8:50 pm 20:50 Mostly Sunny 63 17 48 9 59 59 W 5 7 30.09 1019 7 11 N/A
9:20 pm 21:20 Mostly Sunny 61 16 48 9 63 63 W 6 9 30.06 1018 7 11 N/A
9:50 pm 21:50 Mostly Clear 61 16 46 8 59 59 W 5 7 30.06 1018 7 11 N/A
10:20 pm 22:20 Cloudy 59 15 48 9 68 68 WSW 3 6 30.06 1018 30 48 N/A
10:50 pm 22:50 Mostly Cloudy 59 15 48 9 68 68 VRB 3 6 30.06 1018 30 48 N/A
11:20 pm 23:20 Cloudy 57 14 48 9 72 72 VRB 2 4 30.06 1018 30 48 N/A
11:50 pm 23:50 Cloudy 57 14 48 9 72 72 VRB 2 4 30.06 1018 30 48 N/A

Powered by AerisWeather